COSMOS 1527

导读

COSMOS 1527(宇宙1527)是苏联(CIS)于1984年1月5日08:00发射的人造卫星,隶属于苏联“宇宙”系列卫星计划,该系列是苏联规模最大的卫星家族,涵盖军事侦察、空间物理探测、技术试验等多种用途。COSMOS 1527入轨后完成了既定空间任务,目前已成为空间碎片,在近地轨道运行,是苏联冷战时期航天活动的代表性产物之一。

Basic Information
目录编号:
14616
目录名称:
COSMOS 1527
国际标识:
1984-001F
轨道中心:
EARTH
卫星名称:
COSMOS 1527
卫星全名:
--
卫星状态:
在轨 (已飞行15504 天)
发射日期:
1984-01-05 UTC
国别 :
俄罗斯(独联体) (CIS)
星等 :
--
Orbit Information
数据来源 国际轨道数据 AOE轨道数据
星历时间 2026-06-17T08:42:17+0800
7小时前
查看轨道信息
2026-06-15T06:00:00+0800
2天前
查看轨道信息
半长轴 7838.016km 7838.015km
偏心率 0.0001476 0.0001388
轨道倾角 74.009° 74.009°
近地点辐角 164.078° 164.858°
升交点赤经 268.284° 271.100°
平近点角 9.150° 216.005°
近地点 1458.722km 1458.79km
远地点 1461.036km 1460.966km
周期 115.098分钟 115.098分钟
每日圈数 12.511046 12.511048
Detailed Information
使用方式:
暂无
2D Orbit Map
3D Orbit Map
Orbit Altitude Analysis Chart
Orbit Inclination Analysis Chart
Orbit Comprehensive Analysis Chart
View Comprehensive Chart